TimeCST,TemperatureF,Dew PointF,Humidity,Sea Level PressureIn,VisibilityMPH,Wind Direction,Wind SpeedMPH,Gust SpeedMPH,PrecipitationIn,Events,Conditions,WindDirDegrees,DateUTC
12:15 AM,30.0,26.2,86,30.07,10.0,SE,9.2,-,N/A,,Clear,140,2013-03-03 06:15:00
12:35 AM,30.0,26.4,86,30.05,10.0,SE,9.2,-,N/A,,Clear,140,2013-03-03 06:35:00
12:55 AM,30.2,26.2,85,30.04,10.0,SSE,8.1,-,N/A,,Clear,150,2013-03-03 06:55:00
1:15 AM,30.2,25.7,83,30.04,10.0,SSE,8.1,-,N/A,,Clear,150,2013-03-03 07:15:00
1:55 AM,29.7,25.5,85,30.03,10.0,SSE,9.2,-,N/A,,Clear,150,2013-03-03 07:55:00
2:15 AM,29.8,25.3,83,30.02,10.0,SSE,10.4,-,N/A,,Clear,160,2013-03-03 08:15:00
2:35 AM,29.7,25.2,83,30.02,10.0,SSE,8.1,-,N/A,,Clear,160,2013-03-03 08:35:00
2:55 AM,29.7,25.3,84,30.00,10.0,SSE,8.1,-,N/A,,Clear,160,2013-03-03 08:55:00
3:15 AM,29.1,25.2,85,29.98,10.0,SSE,8.1,-,N/A,,Clear,150,2013-03-03 09:15:00
3:35 AM,28.8,25.2,86,29.98,10.0,SSE,8.1,-,N/A,,Clear,150,2013-03-03 09:35:00
3:55 AM,27.5,24.8,90,29.97,10.0,SE,6.9,-,N/A,,Clear,140,2013-03-03 09:55:00
4:15 AM,27.7,25.0,90,29.97,10.0,SE,6.9,-,N/A,,Clear,140,2013-03-03 10:15:00
4:35 AM,27.7,24.8,89,29.96,10.0,SE,6.9,-,N/A,,Clear,140,2013-03-03 10:35:00
4:55 AM,27.9,24.8,88,29.95,10.0,SE,6.9,-,N/A,,Clear,130,2013-03-03 10:55:00
5:15 AM,27.5,24.8,90,29.95,7.0,SE,8.1,-,N/A,,Clear,130,2013-03-03 11:15:00
5:35 AM,27.3,24.6,90,29.95,7.0,ESE,6.9,-,N/A,,Clear,120,2013-03-03 11:35:00
5:55 AM,27.3,24.6,90,29.94,7.0,SE,9.2,-,N/A,,Clear,130,2013-03-03 11:55:00
6:15 AM,27.1,24.4,90,29.95,7.0,ESE,8.1,-,N/A,,Clear,120,2013-03-03 12:15:00
6:35 AM,27.3,24.4,89,29.95,7.0,ESE,8.1,-,N/A,,Clear,120,2013-03-03 12:35:00
6:55 AM,27.3,24.4,89,29.95,7.0,SE,9.2,-,N/A,,Clear,130,2013-03-03 12:55:00
7:15 AM,27.1,24.3,89,29.94,7.0,SE,9.2,-,N/A,,Clear,130,2013-03-03 13:15:00
7:35 AM,27.5,24.6,89,29.94,5.0,ESE,8.1,-,N/A,,Clear,120,2013-03-03 13:35:00
7:55 AM,28.0,24.8,88,29.94,7.0,SE,10.4,-,N/A,,Clear,130,2013-03-03 13:55:00
8:15 AM,29.1,25.0,85,29.93,7.0,SE,11.5,-,N/A,,Clear,130,2013-03-03 14:15:00
8:35 AM,30.2,25.3,82,29.92,7.0,SE,13.8,-,N/A,,Clear,140,2013-03-03 14:35:00
8:55 AM,31.1,25.7,80,29.92,7.0,SE,12.7,-,N/A,,Clear,140,2013-03-03 14:55:00
9:15 AM,32.0,26.4,80,29.92,7.0,SE,12.7,-,N/A,,Clear,130,2013-03-03 15:15:00
9:35 AM,32.2,26.4,79,29.92,7.0,SE,11.5,-,N/A,,Clear,140,2013-03-03 15:35:00
9:55 AM,33.3,27.1,78,29.91,7.0,SE,11.5,-,N/A,,Clear,130,2013-03-03 15:55:00
10:15 AM,34.2,27.5,77,29.90,7.0,SE,11.5,-,N/A,,Clear,140,2013-03-03 16:15:00
10:35 AM,34.7,28.2,77,29.90,10.0,SE,10.4,-,N/A,,Clear,130,2013-03-03 16:35:00
10:55 AM,35.2,28.8,77,29.90,10.0,SSE,10.4,-,N/A,,Clear,150,2013-03-03 16:55:00
11:15 AM,36.0,29.5,77,29.87,10.0,ESE,12.7,-,N/A,,Clear,120,2013-03-03 17:15:00
11:35 AM,37.0,29.8,75,29.87,7.0,SE,13.8,-,N/A,,Clear,130,2013-03-03 17:35:00
11:55 AM,37.0,30.0,76,29.86,10.0,SE,12.7,-,N/A,,Clear,130,2013-03-03 17:55:00
12:15 PM,37.9,30.2,74,29.86,10.0,SE,15.0,-,N/A,,Clear,130,2013-03-03 18:15:00
12:35 PM,38.7,30.7,73,29.84,10.0,SE,13.8,-,N/A,,Clear,130,2013-03-03 18:35:00
12:55 PM,39.0,30.9,73,29.83,10.0,SE,12.7,-,N/A,,Clear,130,2013-03-03 18:55:00
1:15 PM,39.9,31.3,71,29.82,10.0,ESE,15.0,-,N/A,,Clear,120,2013-03-03 19:15:00
1:35 PM,39.6,31.3,72,29.81,10.0,SE,15.0,-,N/A,,Clear,130,2013-03-03 19:35:00
1:55 PM,40.6,31.8,71,29.82,10.0,SE,12.7,-,N/A,,Clear,140,2013-03-03 19:55:00
2:15 PM,40.3,31.6,71,29.80,10.0,SE,16.1,-,N/A,,Clear,130,2013-03-03 20:15:00
2:35 PM,40.5,31.8,71,29.79,10.0,SE,15.0,-,N/A,,Clear,140,2013-03-03 20:35:00
2:55 PM,40.3,31.3,70,29.78,10.0,SE,12.7,-,N/A,,Clear,140,2013-03-03 20:55:00
3:15 PM,40.5,32.0,72,29.77,10.0,SE,13.8,-,N/A,,Clear,130,2013-03-03 21:15:00
3:35 PM,41.0,32.0,70,29.78,10.0,ESE,12.7,-,N/A,,Clear,120,2013-03-03 21:35:00
3:55 PM,40.6,31.8,71,29.77,10.0,ESE,16.1,-,N/A,,Scattered Clouds,120,2013-03-03 21:55:00
4:15 PM,40.6,31.8,71,29.77,10.0,SE,12.7,21.9,N/A,,Clear,130,2013-03-03 22:15:00
4:35 PM,40.1,32.0,73,29.75,10.0,ESE,12.7,-,N/A,,Clear,120,2013-03-03 22:35:00
4:55 PM,40.1,32.2,73,29.74,10.0,ESE,13.8,-,N/A,,Clear,120,2013-03-03 22:55:00
5:15 PM,39.2,32.0,75,29.72,10.0,ESE,13.8,-,N/A,,Clear,110,2013-03-03 23:15:00
5:35 PM,38.3,30.9,75,29.75,10.0,SE,13.8,24.2,N/A,,Scattered Clouds,130,2013-03-03 23:35:00
5:55 PM,37.4,30.7,77,29.73,10.0,ESE,17.3,-,N/A,,Mostly Cloudy,120,2013-03-03 23:55:00
6:35 PM,36.7,30.2,77,29.73,10.0,ESE,16.1,-,N/A,,Overcast,120,2013-03-04 00:35:00
6:55 PM,36.5,30.0,77,29.73,10.0,ESE,18.4,-,N/A,,Overcast,120,2013-03-04 00:55:00
7:15 PM,36.0,29.7,78,29.75,10.0,ESE,16.1,-,N/A,,Overcast,120,2013-03-04 01:15:00
7:35 PM,35.8,29.7,78,29.75,10.0,SE,17.3,23.0,N/A,,Overcast,130,2013-03-04 01:35:00
7:55 PM,35.6,29.5,78,29.75,10.0,SE,19.6,-,N/A,,Overcast,140,2013-03-04 01:55:00
8:15 PM,35.6,29.3,78,29.76,10.0,SE,13.8,19.6,N/A,,Overcast,130,2013-03-04 02:15:00
8:35 PM,35.2,29.3,79,29.75,10.0,SE,12.7,-,N/A,,Overcast,130,2013-03-04 02:35:00
8:55 PM,35.1,29.1,79,29.75,10.0,SE,12.7,21.9,N/A,,Overcast,140,2013-03-04 02:55:00
9:15 PM,34.7,29.3,81,29.74,10.0,SE,16.1,19.6,N/A,,Overcast,130,2013-03-04 03:15:00
9:35 PM,34.3,29.1,81,29.75,10.0,SE,11.5,-,N/A,,Overcast,130,2013-03-04 03:35:00
9:55 PM,34.2,28.8,81,29.74,10.0,SE,12.7,-,N/A,,Overcast,130,2013-03-04 03:55:00
10:15 PM,34.0,28.8,81,29.75,10.0,SE,11.5,-,N/A,,Mostly Cloudy,130,2013-03-04 04:15:00
10:35 PM,33.8,28.8,82,29.74,10.0,SE,12.7,-,N/A,,Mostly Cloudy,130,2013-03-04 04:35:00
10:55 PM,33.8,28.2,80,29.72,10.0,SE,15.0,-,N/A,,Scattered Clouds,130,2013-03-04 04:55:00
11:15 PM,33.3,28.0,81,29.70,10.0,SE,15.0,-,N/A,,Clear,130,2013-03-04 05:15:00
11:35 PM,33.3,27.5,79,29.70,10.0,SE,15.0,-,N/A,,Clear,130,2013-03-04 05:35:00
11:55 PM,33.1,27.1,79,29.69,10.0,SE,15.0,-,N/A,,Clear,130,2013-03-04 05:55:00